• In Russia
  • List of Countries
  • For 7 days
  • Water Temperature
  • Satellite Maps
  • Weather Map
  • Weather Widgets
  • user-avatar
    Login

    Hourly Weather Verhnyaya Kamenka

    Today, 19 June, Tuesday

    Time Temperature Precipitation Wind Pressure Humidity
    00:00 +14°C° 0 mm 2 mps 746 mmHg 83%
    01:00 +14°C° 0 mm 2 mps 746 mmHg 84%
    02:00 +13°C° 0 mm 1 mps 746 mmHg 84%
    03:00 +13°C° 0 mm 1 mps 745 mmHg 83%
    04:00 +14°C° 0 mm 1 mps 746 mmHg 81%
    05:00 +16°C° 0 mm 2 mps 746 mmHg 80%
    06:00 +17°C° 0 mm 2 mps 746 mmHg 78%
    07:00 +19°C° 0 mm 2 mps 746 mmHg 74%
    08:00 +21°C° 0 mm 3 mps 746 mmHg 71%
    09:00 +24°C° 0 mm 3 mps 746 mmHg 69%
    10:00 +25°C° 0.1 mm 3 mps 746 mmHg 64%
    11:00 +26°C° 0.1 mm 4 mps 745 mmHg 59%
    12:00 +27°C° 0.1 mm 4 mps 745 mmHg 54%
    13:00 +26°C° 0 mm 4 mps 745 mmHg 57%
    14:00 +26°C° 0 mm 4 mps 745 mmHg 61%
    15:00 +26°C° 0 mm 3 mps 745 mmHg 65%
    16:00 +25°C° 0.3 mm 3 mps 745 mmHg 68%
    17:00 +24°C° 0.3 mm 3 mps 745 mmHg 72%
    18:00 +24°C° 0.3 mm 3 mps 745 mmHg 76%
    19:00 +21°C° 0 mm 3 mps 745 mmHg 79%
    20:00 +19°C° 0 mm 3 mps 745 mmHg 83%
    21:00 +18°C° 0 mm 3 mps 745 mmHg 86%
    22:00 +17°C° 0 mm 3 mps 745 mmHg 86%
    23:00 +17°C° 0 mm 2 mps 745 mmHg 86%

    Tomorrow, 20 June, Wednesday

    Time Temperature Precipitation Wind Pressure Humidity
    00:00 +17°C° 0 mm 2 mps 745 mmHg 86%
    01:00 +16°C° 0 mm 2 mps 745 mmHg 87%
    02:00 +16°C° 0 mm 3 mps 744 mmHg 87%
    03:00 +16°C° 0 mm 3 mps 744 mmHg 87%
    04:00 +17°C° 0 mm 3 mps 744 mmHg 86%
    05:00 +18°C° 0 mm 4 mps 744 mmHg 85%
    06:00 +19°C° 0 mm 4 mps 743 mmHg 84%
    07:00 +20°C° 0.3 mm 5 mps 743 mmHg 81%
    08:00 +22°C° 0.3 mm 6 mps 742 mmHg 78%
    09:00 +23°C° 0.3 mm 7 mps 742 mmHg 74%
    10:00 +23°C° 0.3 mm 7 mps 741 mmHg 74%
    11:00 +23°C° 0.3 mm 8 mps 741 mmHg 75%
    12:00 +23°C° 0.3 mm 8 mps 740 mmHg 75%
    13:00 +22°C° 1.4 mm 8 mps 740 mmHg 78%
    14:00 +21°C° 1.4 mm 8 mps 740 mmHg 82%
    15:00 +20°C° 1.4 mm 8 mps 739 mmHg 86%
    16:00 +20°C° 0.4 mm 7 mps 740 mmHg 84%
    17:00 +19°C° 0.4 mm 6 mps 740 mmHg 83%
    18:00 +19°C° 0.4 mm 5 mps 740 mmHg 81%
    19:00 +16°C° 0 mm 5 mps 741 mmHg 80%
    20:00 +15°C° 0 mm 4 mps 741 mmHg 80%
    21:00 +13°C° 0 mm 4 mps 742 mmHg 79%
    22:00 +13°C° 0 mm 4 mps 742 mmHg 80%
    23:00 +12°C° 0 mm 4 mps 742 mmHg 80%

    Day after tomorrow, 21 June, Thursday

    Time Temperature Precipitation Wind Pressure Humidity
    00:00 +12°C° 0 mm 4 mps 742 mmHg 81%
    01:00 +11°C° 0 mm 4 mps 742 mmHg 82%
    02:00 +11°C° 0 mm 4 mps 742 mmHg 83%
    03:00 +11°C° 0 mm 4 mps 742 mmHg 83%
    04:00 +12°C° 0 mm 5 mps 742 mmHg 81%
    05:00 +13°C° 0 mm 6 mps 742 mmHg 79%
    06:00 +14°C° 0 mm 6 mps 743 mmHg 78%
    07:00 +15°C° 0 mm 7 mps 742 mmHg 73%
    08:00 +16°C° 0 mm 8 mps 742 mmHg 68%
    09:00 +17°C° 0 mm 9 mps 742 mmHg 63%
    10:00 +18°C° 0 mm 9 mps 742 mmHg 61%
    11:00 +18°C° 0 mm 9 mps 742 mmHg 60%
    12:00 +19°C° 0 mm 10 mps 742 mmHg 59%
    13:00 +19°C° 0 mm 10 mps 742 mmHg 59%
    14:00 +19°C° 0 mm 9 mps 742 mmHg 60%
    15:00 +19°C° 0 mm 9 mps 742 mmHg 61%
    16:00 +18°C° 0 mm 8 mps 743 mmHg 64%
    17:00 +18°C° 0 mm 7 mps 743 mmHg 68%
    18:00 +17°C° 0 mm 6 mps 743 mmHg 72%
    19:00 +16°C° 0 mm 6 mps 743 mmHg 72%
    20:00 +15°C° 0 mm 5 mps 743 mmHg 72%
    21:00 +14°C° 0 mm 5 mps 744 mmHg 72%
    22:00 +14°C° 0 mm 5 mps 744 mmHg 73%
    23:00 +13°C° 0 mm 5 mps 744 mmHg 74%

    22 June, Friday

    Time Temperature Precipitation Wind Pressure Humidity
    00:00 +13°C° 0 mm 5 mps 745 mmHg 75%
    01:00 +12°C° 0 mm 4 mps 745 mmHg 76%
    02:00 +11°C° 0 mm 4 mps 745 mmHg 77%
    03:00 +11°C° 0 mm 4 mps 746 mmHg 78%
    04:00 +12°C° 0 mm 4 mps 746 mmHg 77%
    05:00 +13°C° 0 mm 4 mps 746 mmHg 77%
    06:00 +14°C° 0 mm 4 mps 747 mmHg 76%
    07:00 +15°C° 0 mm 4 mps 747 mmHg 73%
    08:00 +18°C° 0 mm 4 mps 747 mmHg 69%
    09:00 +20°C° 0 mm 5 mps 747 mmHg 66%
    10:00 +20°C° 0 mm 5 mps 747 mmHg 63%
    11:00 +21°C° 0 mm 5 mps 747 mmHg 60%
    12:00 +22°C° 0 mm 5 mps 748 mmHg 58%
    13:00 +22°C° 0 mm 5 mps 748 mmHg 59%
    14:00 +23°C° 0 mm 5 mps 748 mmHg 60%
    15:00 +23°C° 0 mm 5 mps 748 mmHg 61%
    16:00 +22°C° 0 mm 4 mps 748 mmHg 66%
    17:00 +22°C° 0 mm 3 mps 748 mmHg 71%
    18:00 +23°C° 0 mm 2 mps 748 mmHg 76%
    19:00 +20°C° 0 mm 2 mps 748 mmHg 80%
    20:00 +19°C° 0 mm 2 mps 748 mmHg 84%
    21:00 +18°C° 0 mm 1 mps 748 mmHg 88%
    22:00 +17°C° 0 mm 2 mps 748 mmHg 89%
    23:00 +17°C° 0 mm 2 mps 748 mmHg 90%

    23 June, Saturday

    Time Temperature Precipitation Wind Pressure Humidity
    00:00 +16°C° 0 mm 2 mps 748 mmHg 91%
    01:00 +16°C° 0 mm 2 mps 748 mmHg 92%
    02:00 +16°C° 0 mm 2 mps 749 mmHg 93%
    03:00 +16°C° 0 mm 2 mps 749 mmHg 93%
    04:00 +17°C° 0 mm 2 mps 749 mmHg 92%
    05:00 +18°C° 0 mm 2 mps 749 mmHg 90%
    06:00 +20°C° 0 mm 2 mps 749 mmHg 88%
    07:00 +21°C° 0 mm 2 mps 749 mmHg 83%
    08:00 +24°C° 0 mm 2 mps 749 mmHg 78%
    09:00 +26°C° 0 mm 3 mps 749 mmHg 73%
    10:00 +26°C° 0 mm 3 mps 749 mmHg 69%
    11:00 +27°C° 0 mm 3 mps 749 mmHg 66%
    12:00 +28°C° 0 mm 3 mps 749 mmHg 62%
    13:00 +28°C° 0 mm 3 mps 749 mmHg 61%
    14:00 +28°C° 0 mm 3 mps 749 mmHg 61%
    15:00 +29°C° 0 mm 3 mps 748 mmHg 60%
    16:00 +28°C° 0 mm 3 mps 748 mmHg 64%
    17:00 +28°C° 0 mm 2 mps 748 mmHg 68%
    18:00 +27°C° 0 mm 2 mps 748 mmHg 72%
    19:00 +25°C° 0 mm 2 mps 748 mmHg 76%
    20:00 +23°C° 0 mm 1 mps 748 mmHg 80%
    21:00 +21°C° 0 mm 1 mps 748 mmHg 84%
    22:00 +21°C° 0 mm 1 mps 748 mmHg 86%
    23:00 +20°C° 0 mm 1 mps 749 mmHg 87%

    24 June, Sunday

    Time Temperature Precipitation Wind Pressure Humidity
    00:00 +20°C° 0 mm 1 mps 749 mmHg 88%
    01:00 +20°C° 0 mm 1 mps 749 mmHg 88%
    02:00 +19°C° 0 mm 1 mps 749 mmHg 89%
    03:00 +18°C° 0 mm 2 mps 749 mmHg 89%
    04:00 +19°C° 0 mm 2 mps 749 mmHg 87%
    05:00 +20°C° 0 mm 2 mps 749 mmHg 84%
    06:00 +23°C° 0 mm 2 mps 749 mmHg 82%
    07:00 +24°C° 0 mm 2 mps 749 mmHg 77%
    08:00 +26°C° 0 mm 3 mps 749 mmHg 73%
    09:00 +27°C° 0 mm 3 mps 749 mmHg 68%
    10:00 +28°C° 0 mm 4 mps 749 mmHg 65%
    11:00 +29°C° 0 mm 4 mps 749 mmHg 61%
    12:00 +29°C° 0 mm 4 mps 749 mmHg 58%
    13:00 +30°C° 0 mm 4 mps 749 mmHg 59%
    14:00 +30°C° 0 mm 4 mps 749 mmHg 59%
    15:00 +30°C° 0 mm 4 mps 749 mmHg 60%
    16:00 +29°C° 0 mm 4 mps 749 mmHg 64%
    17:00 +28°C° 0 mm 3 mps 749 mmHg 68%
    18:00 +28°C° 0 mm 3 mps 748 mmHg 72%
    19:00 +26°C° 0 mm 3 mps 748 mmHg 74%
    20:00 +25°C° 0 mm 3 mps 749 mmHg 76%
    21:00 +22°C° 0 mm 3 mps 749 mmHg 79%
    22:00 +21°C° 0 mm 3 mps 749 mmHg 79%
    23:00 +21°C° 0 mm 3 mps 749 mmHg 79%
    Show more